Reflectivity
-20 -20 -20 -20 -20 -20 -20 -20 -20 -20 -20 -20 -20 -20 -20 -20 -20 -20 -20 -20 -20 -20 -20 -20 -20 -20 -20 -13 -20 8 -1 -12 -20 -20 -20 -20 -20 -20 -20 -20 -20 -20 -20 -20
-20 -20 -20 -20 -20 -20 -20 -20 -20 -20 -20 -20 -20 -20 -20 -20 -20 -18 -20 -20 -20 -20 -20 -20 -15 -20 -20 -20 -15 -11 5 7 -14 -20 -20 -20 -20 -20 -20 -20 -20 -20 -20 -20
-20 -20 -20 -20 -20 -20 -17 -20 -20 -20 -20 -20 -20 -20 -20 -20 -20 -20 -20 -20 -20 -20 -20 -20 -20 -20 -20 5 -20 -11 -1 -11 -3 -20 -20 -20 -20 -20 -20 -20 -20 -20 -16 -20
-20 -20 -20 -20 -20 4 3 -18 -1 -20 -20 -20 -20 -14 -20 -20 -20 -20 -20 -20 -20 -20 -20 -3 -20 17 -16 -11 -20 -4 -19 -13 -20 -20 -20 -20 -20 -20 -20 -20 -20 -20 -20 -20
-20 -20 -20 -20 -20 -20 -18 -20 -18 -1 -20 -16 -20 5 -20 -20 -20 -20 -20 -20 -20 -20 -20 1 -20 -20 -20 -5 -20 -20 -20 -7 -20 -9 -20 -20 -20 -20 -20 -20 -20 -20 -20 -20
-20 -20 -20 -20 -20 -20 -15 -11 -16 -9 7 13 -20 -12 -20 -20 -20 -20 -20 -20 -20 -20 -20 -7 -20 -20 -20 -14 2 10 -12 2 -20 -20 -20 -20 -20 -20 -20 -20 -20 -20 -14 21
-20 -20 -20 -20 -20 -12 -1 19 14 2 12 -14 -20 -20 -20 -20 -20 -20 -20 -20 -20 -20 -20 -20 -20 -20 -20 -18 -6 9 6 -2 -20 -20 -5 -20 -20 -20 -20 -19 -14 -11 26 6
-20 -20 -8 -15 -15 14 1 19 10 12 -20 9 -9 19 -20 -20 -20 -20 -20 -20 -20 -20 -20 -3 -20 -20 -20 -20 -7 -20 -20 -11 -7 -20 -20 -20 -20 -20 13 7 18 22 29 24
1 -20 -20 -20 -20 4 -6 -12 -8 17 -20 10 -20 -20 -20 -20 -20 -20 -20 -20 -20 -20 -20 27 -20 -20 -20 -20 8 1 -5 -0 -20 -20 -20 -20 -17 13 10 26 25 27 37 38
6 4 -20 -20 -20 -20 13 -13 5 20 18 8 -5 -20 -20 -20 -20 -20 -20 -20 -20 -20 -20 10 -13 -20 -20 6 10 15 5 25 -11 -20 -20 -2 14 25 33 34 36 37 34 35
8 12 -20 -20 -16 20 8 25 19 15 11 11 19 11 -3 -20 -20 -20 -20 -20 -20 -20 15 -14 9 -20 18 19 1 23 29 33 22 3 12 23 28 32 39 30 34 33 34 33
-13 -4 5 -20 -20 -20 -13 6 9 20 2 12 12 -0 -12 -16 -8 1 -20 -20 -20 -12 -20 -15 4 -20 25 13 -9 20 5 22 33 32 36 40 37 40 35 35 36 32 32 23
-7 11 -9 -20 -20 -4 -17 -20 13 13 14 7 26 32 25 16 5 1 9 -16 -6 25 -5 -16 -20 3 21 -9 -13 15 25 27 31 32 40 38 43 40 35 33 38 31 22 23
-11 10 6 7 -20 -20 0 -20 -3 23 21 16 25 21 29 32 29 17 11 20 24 29 19 9 -18 2 17 -2 -2 20 22 34 28 35 35 35 36 35 38 35 29 20 19 14
-15 -11 -20 -19 -20 -20 8 22 19 5 14 18 19 19 30 38 30 25 32 33 33 30 31 30 26 27 33 35 23 33 42 40 33 35 35 32 37 38 34 24 16 15 12 16
-15 -12 -7 -20 -0 -13 7 23 8 -20 -3 12 12 31 31 38 38 37 31 36 40 42 36 33 37 39 33 29 40 37 37 36 32 37 38 37 35 32 17 12 16 14 -1 -20
4 5 -14 -20 -13 -6 -10 -17 3 16 16 2 9 17 28 30 36 39 39 41 39 36 37 39 37 37 38 42 37 37 37 41 42 38 33 29 27 19 14 15 -9 -20 -20 -13
-16 4 0 -13 -20 11 -17 -19 8 24 22 7 13 23 27 30 36 38 41 38 40 42 41 40 35 37 42 40 37 39 36 35 34 31 25 22 13 5 -5 -20 -20 -20 -20 -20
-2 7 1 5 1 -20 -20 -20 -20 -2 14 6 14 26 33 29 32 30 37 39 38 36 39 39 39 39 41 37 33 33 33 33 29 20 11 5 1 -19 -20 -20 -20 -20 -20 -20
-20 4 8 -17 6 -20 -20 -20 -20 -13 10 11 9 13 13 21 18 19 22 30 32 36 34 27 23 23 20 25 27 24 25 16 -3 -9 -20 -20 -20 -20 -20 -20 -20 -20 -20 -20
-20 0 -16 -19 1 -20 -20 -20 -20 -20 13 -8 -10 10 7 8 12 11 -9 -5 -6 16 32 30 33 33 27 24 25 29 7 -3 -9 -20 -20 -20 -20 -20 -20 -19 -15 -10 -8 -20
-20 -20 -8 -20 -20 -20 -20 -20 -20 -20 -0 -20 -12 -2 7 -4 6 1 1 2 6 -3 2 19 19 21 22 22 21 15 6 -18 -20 -20 -20 -20 -20 -19 -20 -20 -20 -20 -19 -20
-20 -20 -18 -20 -20 -20 -20 -20 -20 -20 -20 -2 -4 -2 -7 -6 2 4 8 2 -4 -0 -5 -19 -3 12 13 19 12 13 -1 2 -2 7 -18 -20 -17 -20 -20 -2 -10 -20 -20 -20
-20 -20 -20 -20 -20 -20 -20 -20 -20 -20 -11 -6 5 -13 -20 -20 -20 -20 -7 -7 -20 -20 -20 -20 -20 -20 6 8 11 8 9 4 11 0 -6 -9 -19 -20 -20 -20 -20 -20 -20 -20
-20 -20 -20 -20 -20 -20 -20 -20 -20 -20 -20 -20 -20 -20 -20 -20 -20 -20 -20 -20 -20 -20 -20 -20 -20 -20 -20 -3 12 9 3 6 14 -9 11 -13 -20 -20 -20 -20 -20 -20 -20 -20
-20 -20 -20 -20 -20 -20 -20 -20 -20 -20 -20 -20 -20 -20 -20 -20 -20 -20 -20 -20 -20 -20 -20 -20 -20 -20 -20 -20 7 1 4 8 -6 -19 -20 -20 -20 -19 -20 -20 -20 -20 -20 -20
Wind_Speed
5 7 9 13 12 15 16 18 22 19 19 21 22 23 19 20 18 17 22 23 23 18 17 18 16 16 15 18 18 17 17 16 11 11 10 9 7 6 5 5 6 5 5 6
9 12 6 10 14 14 15 18 20 19 18 21 24 28 25 24 26 18 18 23 22 18 18 17 19 18 17 18 17 19 18 16 13 10 9 7 9 6 7 6 6 7 6 6
10 15 17 11 14 15 15 16 18 21 18 22 22 33 29 26 28 25 22 22 21 19 19 19 19 20 20 20 20 21 20 17 15 15 10 9 8 6 5 6 6 7 8 9
9 5 11 14 17 14 16 15 16 17 16 13 12 16 16 16 26 29 25 23 24 21 16 18 19 19 20 19 19 18 20 18 16 15 13 16 10 10 6 8 8 8 10 9
7 13 14 17 17 13 14 12 14 16 17 18 18 15 6 19 26 24 26 24 25 24 22 17 19 21 21 18 18 18 19 18 15 14 13 12 10 8 9 9 11 10 9 9
17 18 12 9 12 13 13 14 16 17 13 15 16 18 16 17 21 17 17 25 21 25 25 20 20 20 19 17 17 17 20 17 16 14 13 13 15 14 12 11 9 7 7 6
17 8 3 5 10 8 9 10 5 5 7 11 12 16 25 13 20 23 24 22 23 22 24 22 22 19 17 18 17 17 18 13 12 11 10 11 14 14 15 13 10 10 6 8
10 10 1 2 10 11 17 5 5 9 9 13 18 9 15 11 9 12 13 19 16 21 20 20 21 21 19 18 15 13 15 15 12 12 12 12 14 9 10 12 10 8 7 8
7 8 22 22 13 1 0 6 1 8 19 13 9 16 23 19 7 9 13 16 19 18 19 17 20 19 18 16 15 13 12 14 13 13 12 13 12 14 12 15 11 8 10 8
7 14 12 9 10 11 7 5 5 4 6 9 8 14 14 11 16 18 17 16 16 21 18 17 15 16 14 14 14 15 14 14 13 14 13 12 14 15 15 13 13 11 9 10
14 7 13 17 3 10 4 2 4 5 6 6 8 7 6 15 17 20 20 20 17 21 12 13 11 10 9 15 18 14 17 18 16 14 15 16 16 15 15 14 11 10 10 9
9 6 10 22 22 9 4 7 8 6 6 7 10 11 9 14 17 14 17 12 9 2 11 14 13 12 11 13 16 17 17 18 16 16 13 16 14 16 15 12 11 11 10 10
7 4 9 7 3 4 10 17 12 12 6 13 7 4 9 15 15 12 11 5 4 6 10 13 14 13 12 13 14 16 16 20 18 18 15 14 14 14 14 13 11 10 10 9
5 5 9 11 19 17 16 20 18 9 5 9 7 14 15 16 15 12 8 5 5 8 8 9 13 14 13 14 15 16 15 16 18 18 19 14 14 13 13 11 11 10 9 9
6 10 13 17 20 20 20 16 13 10 10 6 12 14 12 10 13 8 6 5 4 9 11 10 12 13 13 16 14 15 15 14 19 17 18 15 14 13 12 11 11 10 9 9
6 7 12 18 14 9 16 8 11 8 13 11 17 11 14 14 11 9 8 6 6 7 10 12 10 11 14 15 15 17 15 15 17 16 15 14 14 12 10 11 10 10 9 8
6 5 7 8 12 17 2 11 8 4 10 11 9 13 20 13 12 15 10 7 7 8 9 10 12 11 12 13 14 17 14 13 16 15 13 13 12 12 11 10 10 9 9 7
6 6 4 9 14 1 3 6 2 9 10 18 17 19 18 15 10 10 15 8 9 9 10 11 12 14 12 13 14 15 14 15 14 13 13 12 12 11 10 10 9 8 7 6
13 4 5 5 8 6 3 12 7 5 8 15 17 20 15 17 10 11 18 12 10 12 11 11 10 12 11 12 13 14 13 14 12 12 13 12 12 11 9 9 8 7 6 6
7 8 5 4 6 4 6 13 8 5 6 12 13 14 17 16 8 9 16 13 11 11 12 12 12 12 12 10 11 14 12 11 11 12 11 11 11 10 10 9 8 4 5 6
3 4 7 7 5 4 6 17 2 3 4 14 11 12 13 9 6 10 12 14 12 11 12 12 11 11 11 10 11 12 10 11 11 12 12 10 9 9 9 8 6 6 6 6
3 3 3 2 3 3 10 5 6 3 5 6 6 9 12 9 9 10 12 12 11 11 10 11 11 10 9 9 11 11 11 9 11 12 11 10 9 7 7 8 6 6 5 6
3 2 1 4 2 2 3 2 4 6 6 5 6 9 10 8 7 7 8 9 9 9 8 7 11 11 8 8 9 12 8 11 11 11 11 9 9 8 7 7 6 4 4 3
6 5 5 3 2 2 2 2 1 4 5 7 5 6 7 6 5 6 6 6 6 6 8 7 10 11 9 7 9 11 10 11 12 11 9 8 8 8 8 6 3 3 3 3
3 6 4 5 9 4 2 0 3 6 5 7 5 3 8 6 8 7 7 7 6 6 6 8 9 10 9 9 10 9 10 11 11 9 7 8 7 7 6 5 4 4 4 3
8 7 8 5 3 1 3 2 2 3 5 8 9 6 8 9 6 7 7 6 6 7 6 9 9 10 9 10 10 8 8 10 10 8 6 6 6 5 5 5 6 10 8 9
Wind_Direction
335 292 291 307 299 293 290 285 282 278 290 305 289 284 281 285 289 290 258 236 244 214 215 194 195 192 195 196 184 189 185 191 176 174 152 152 155 148 122 91 84 81 102 103
291 280 349 324 298 289 288 281 278 277 261 267 283 273 260 257 263 258 268 260 247 231 206 184 190 185 193 194 182 188 189 184 178 165 158 165 145 142 120 110 90 88 85 89
297 290 312 300 290 292 290 279 278 277 279 274 278 275 268 253 260 258 246 256 265 273 205 196 194 189 191 192 192 184 187 176 177 168 157 122 102 109 125 124 103 84 81 78
288 306 298 302 289 294 291 297 300 278 276 270 272 282 276 261 244 238 238 242 248 251 253 189 192 202 194 196 191 188 178 175 181 159 154 162 163 160 159 135 112 92 73 69
293 313 314 300 295 303 283 297 289 281 276 279 254 269 290 237 245 246 230 227 236 235 245 182 199 198 198 193 186 184 177 174 178 162 171 172 160 121 121 120 114 102 83 74
270 274 268 267 307 288 280 283 282 271 261 254 254 241 276 248 257 261 254 241 227 225 221 189 190 200 195 187 183 188 173 175 163 173 175 169 141 140 135 135 122 111 102 84
320 293 197 255 291 306 243 283 285 243 218 255 250 228 244 276 265 261 252 249 239 224 215 197 186 193 185 183 181 181 169 148 150 156 154 143 140 138 135 133 125 125 114 102
333 318 259 79 290 299 298 248 268 294 291 313 307 249 246 245 279 304 294 279 284 225 216 192 181 179 175 166 156 150 152 137 144 143 133 127 127 127 122 120 120 111 108 109
305 272 320 299 311 225 344 240 227 276 255 261 239 266 282 266 259 318 307 299 280 267 218 181 178 173 170 158 153 149 140 129 129 125 117 118 120 120 115 109 101 106 111 110
300 293 284 286 291 264 223 355 274 222 286 303 276 249 258 2 320 307 303 296 285 271 226 173 176 171 166 147 129 126 117 113 114 114 113 109 105 103 107 104 103 107 114 112
302 248 294 311 243 303 284 256 238 260 267 290 315 325 355 330 323 302 300 298 293 271 185 152 148 137 151 129 118 115 113 113 106 101 105 103 107 105 102 102 106 114 112 118
320 296 285 283 282 257 246 279 285 282 284 280 271 274 359 334 322 302 304 311 307 187 120 114 114 117 126 118 117 116 115 109 102 103 101 105 99 111 107 99 110 110 117 102
338 269 303 302 163 190 309 310 297 285 271 264 288 328 3 331 319 318 314 316 8 38 100 117 117 117 121 113 111 108 115 107 114 109 108 107 106 101 101 107 108 104 102 108
294 263 266 279 288 306 301 305 312 292 265 320 285 311 322 327 318 327 338 351 79 81 80 102 112 114 111 107 108 111 106 119 117 118 107 107 108 109 101 115 112 110 119 113
313 271 278 278 281 286 279 291 317 330 346 290 321 311 318 341 333 328 332 358 54 90 88 91 99 107 108 111 105 98 107 111 113 108 112 111 109 109 117 117 111 117 106 103
298 278 314 292 277 262 294 303 334 3 354 334 318 307 334 353 345 1 10 24 51 72 94 91 84 102 110 103 112 104 104 105 103 108 106 109 105 109 110 107 111 108 112 120
272 302 323 272 311 312 208 -0 324 300 22 347 343 308 314 342 2 2 16 36 62 72 75 80 86 84 88 103 111 101 104 106 101 106 110 113 116 113 114 118 116 117 118 123
269 282 269 288 311 47 39 38 258 317 22 6 344 335 330 327 334 22 19 49 71 82 85 92 89 87 86 92 98 103 105 101 106 118 121 115 116 113 114 114 113 108 115 120
221 248 270 296 305 291 93 10 342 339 22 15 349 340 337 334 319 26 14 29 57 92 91 84 87 90 96 104 102 102 100 106 122 117 110 112 116 115 113 108 110 113 115 113
212 237 269 311 295 337 32 346 336 210 33 14 348 347 348 340 14 5 357 24 61 79 98 99 95 98 98 92 96 103 112 116 113 112 112 108 115 118 114 114 111 107 109 105
229 206 236 255 274 282 359 315 350 10 317 329 342 351 352 3 337 330 8 31 45 72 87 95 88 88 96 98 104 103 108 98 106 107 102 104 106 110 109 105 107 115 106 107
239 233 234 255 270 306 359 6 43 283 291 302 341 359 345 353 358 14 27 35 46 55 71 90 97 97 98 108 115 103 94 103 105 104 104 102 99 99 107 108 102 93 106 96
247 256 318 242 317 131 31 16 316 297 285 327 337 341 344 359 19 25 33 36 42 59 57 72 97 99 93 96 116 112 110 105 101 104 106 105 101 99 103 102 92 96 86 106
212 204 232 284 94 173 234 267 358 307 309 322 328 319 345 13 37 54 65 56 60 51 72 91 98 100 97 93 94 109 122 122 113 110 109 108 101 92 83 90 100 118 113 111
266 167 211 252 277 278 166 20 336 336 6 359 339 10 14 13 42 48 49 54 66 64 60 77 91 91 85 91 99 110 118 118 109 110 108 104 97 96 93 72 70 86 47 53
189 191 196 229 105 351 107 114 345 357 14 9 357 358 35 31 59 70 55 39 53 63 71 83 91 100 103 105 106 112 112 113 120 116 110 101 106 121 126 126 100 85 99 82